Location: Unspecified
(0.0000°N, 0.0000°E)
Time: 14:41:17
(UTC+00:00)

Vanguard 3 - Visible Passes

Search period start: 21 February 2019 00:00
Search period end: 03 March 2019 00:00
Orbit: 509 x 3262 km, 33.4° (Epoch: 20 February)

Date Brightness Start Highest point End Pass type
(mag) Time Alt. Az. Time Alt. Az. Time Alt. Az.
21 Feb 11.2 02:11:44 11° NNE 02:11:44 11° NNE 02:12:30 10° NNE visible
21 Feb 10.8 04:17:45 10° NNW 04:24:33 14° N 04:30:04 10° NE visible
21 Feb 9.4 19:54:56 10° SW 20:06:37 81° SE 20:14:46 41° ENE visible
21 Feb 10.4 22:09:01 10° W 22:19:22 41° WNW 22:19:22 41° WNW visible
22 Feb 11.0 03:06:14 14° N 03:06:31 14° N 03:13:27 10° NNE visible
22 Feb 10.3 05:16:53 10° NNW 05:25:59 21° NNE 05:32:21 10° ENE visible
22 Feb 9.4 18:41:42 10° SW 18:51:09 52° SE 19:05:21 14° ENE visible
22 Feb 9.7 20:53:28 10° WSW 21:06:23 64° NNW 21:09:58 56° N visible
22 Feb 11.1 23:10:58 10° WNW 23:14:34 17° WNW 23:14:34 17° WNW visible
23 Feb 11.3 01:56:13 11° NNE 01:56:13 11° NNE 01:57:02 10° NNE visible
23 Feb 10.7 04:00:46 11° NNW 04:09:06 17° N 04:16:14 10° NE visible
23 Feb 9.3 19:39:13 10° SW 19:50:02 89° NW 20:00:36 30° NE visible
23 Feb 10.4 21:53:34 10° W 22:05:13 39° NW 22:05:13 39° NW visible
24 Feb11.700:46:14NE00:46:14NE00:09:49WNWvisible
24 Feb 11.0 02:50:48 16° N 02:51:00 16° N 02:59:10 10° NE visible
24 Feb 10.2 04:59:05 10° NNW 05:10:25 27° NNE 05:17:54 10° ENE visible
24 Feb 9.2 18:25:57 10° SW 18:34:44 59° SE 18:50:09 10° ENE visible
24 Feb 9.8 20:37:56 10° WSW 20:49:54 55° NNW 20:55:54 42° NNE visible
24 Feb 11.1 22:55:49 10° WNW 23:00:30 19° NW 23:00:30 19° NW visible
25 Feb 11.3 01:40:52 11° NNE 01:40:52 11° NNE 01:41:45 10° NNE visible
25 Feb 10.7 03:45:26 15° NNW 03:53:31 21° NNE 04:01:59 10° ENE visible
25 Feb 9.2 19:23:37 10° WSW 19:33:37 79° NW 19:46:37 21° NE visible
25 Feb 10.5 21:38:18 10° W 21:50:52 35° NNW 21:51:14 35° NNW visible
26 Feb11.700:31:01NE00:31:01NE23:55:50WNWvisible
26 Feb 11.0 02:35:35 18° N 02:35:35 18° N 02:44:47 10° NE visible
26 Feb 10.1 04:41:23 10° NW 04:54:42 33° NNE 05:03:09 10° E visible
26 Feb 9.9 20:22:35 10° W 20:33:35 47° NNW 20:41:57 30° NNE visible
26 Feb 11.1 22:40:51 10° WNW 22:46:34 19° NW 22:46:34 19° NW visible
27 Feb 11.4 01:25:48 11° NE 01:25:48 11° NE 01:26:38 10° NE visible
27 Feb 10.6 03:30:22 19° NNW 03:37:47 26° NNE 03:47:27 10° ENE visible
27 Feb 9.2 05:40:46 10° NW 05:54:44 59° NNE 06:02:29 10° ESE visible
27 Feb 9.3 19:08:10 10° WSW 19:17:22 67° NNW 19:32:40 12° NE visible
27 Feb 10.6 21:23:16 10° WNW 21:34:45 30° NNW 21:37:17 29° N visible
28 Feb 10.9 02:20:41 21° NNE 02:20:41 21° NNE 02:30:16 10° NE visible
28 Feb 10.0 04:25:15 13° NW 04:38:51 41° NNE 04:48:11 10° E visible
28 Feb 10.1 20:07:24 10° W 20:17:29 40° NNW 20:27:59 21° NNE visible
28 Feb 11.0 22:26:04 10° NW 22:32:35 19° NNW 22:32:35 19° NNW visible
01 Mar 11.4 01:11:03 11° NE 01:11:03 11° NE 01:11:37 10° NE visible
01 Mar 10.5 03:15:38 25° N 03:21:53 30° NNE 03:32:39 10° ENE visible
01 Mar 9.1 05:23:23 10° NW 05:38:44 71° NNE 05:47:11 10° ESE visible
01 Mar 9.4 18:52:51 10° WSW 19:01:18 56° NNW 19:16:13 10° NE visible
01 Mar 10.7 21:08:26 10° WNW 21:18:48 25° NNW 21:23:14 23° N visible
02 Mar 10.9 02:06:06 23° NNE 02:06:06 23° NNE 02:15:33 10° ENE visible
02 Mar 9.8 04:10:42 20° NW 04:22:48 49° NNE 04:33:02 10° E visible
02 Mar 10.2 19:52:25 10° W 20:01:32 33° NNW 20:13:50 13° NNE visible
02 Mar 11.1 22:11:25 10° NW 22:18:26 18° NNW 22:18:26 18° NNW visible
